Location: Newark
(35.9031°N, 139.7175°E)
Time: 22:16:53
(UTC+00:00)

Vanguard 1 - Visible Passes

Search period start: 25 May 2020 00:00
Search period end: 04 June 2020 00:00
Orbit: 649 x 3834 km, 34.3° (Epoch: 23 May)

Date Brightness Start Highest point End Pass type
(mag) Time Alt. Az. Time Alt. Az. Time Alt. Az.
25 May 13.4 18:54:08 10° SSW 19:08:38 35° SE 19:27:49 10° E visible
26 May 13.6 17:05:07 10° SE 17:08:13 11° ESE 17:11:32 10° ESE visible
27 May 13.4 17:19:32 10° SSE 17:28:19 17° SE 17:39:22 10° E visible
28 May 13.2 17:37:33 10° S 17:48:27 25° SE 18:03:23 10° E visible
29 May 13.0 17:56:35 10° S 18:08:42 33° SE 18:26:18 10° E visible
30 May 13.0 18:16:11 10° SSW 18:29:06 41° SE 18:48:39 10° ENE visible
31 May 13.1 16:22:58 10° SSE 16:29:15 15° ESE 16:37:03 10° E visible
31 May 12.9 18:36:10 10° SW 18:49:41 51° SE 19:10:41 10° ENE visible
01 Jun 12.9 16:42:35 14° SSE 16:49:18 22° SE 17:01:27 10° E visible
01 Jun 12.8 18:56:28 10° SW 19:10:29 60° SSE 19:32:33 10° ENE visible
02 Jun 12.6 17:02:15 18° S 17:09:26 30° SE 17:24:28 10° E visible
03 Jun 12.4 17:21:54 20° S 17:29:44 39° SE 17:46:53 10° ENE visible
